Weather in Mejvodnoe

Russia / Republic of Crimea     45°35′07″N   32°50′24″E
temp.,
°C
wind,
m/s
gust,
m/s
humid.,
%
clouds,
%
prec.,
mm/h
press.,
hPa
HPBL,
m
27 february, sat
sat2700:00+8sw712880 0.0 1022229
03:00+8sw711890 0.0 1021222
06:00+7sw69910 0.0 1019174
09:00+8wsw68890 0.0 1019196
12:00+9w45830 0.0 1019202
15:00+8nw458312 0.0 1018188
18:00+8nnw588574 0.0 1018316
21:00+6nnw10118887 0.3 1019665
28 february, sun
sun2800:00+5nnw8976100 0.1 1020797
03:00+5nnw91086100 0.1 1020658
06:00+4nnw897996 0.2 1021980
09:00+4nnw898487 0.3 1022791
12:00+4nnw8978100 0.3 1022824
15:00+5nw897484 0.3 1023927
18:00+5nw897487 0.2 1023932
21:00+4nnw787587 0.3 1025814
1 march, mon
mon100:00+3nnw6677100 0.1 1025770
03:00+3nw456998 0.1 1025743
06:00+3nnw457295 0.0 1025551
09:00+3n457394 0.1 1026753
12:00+4n336924 0.1 1027652
15:00+4nnw446922 0.1 1027563
18:00+4nw45780 0.0 1027564
21:00+4nne457145 0.2 1029757
2 march, tue
tue200:00+4nne458097 0.1 1030395
03:00+3ne338294 0.3 1030347
06:00+3nne338181 0.1 1031403
09:00+3nnw337579 0.1 1031518
12:00+4wnw44734 0.0 1031550
15:00+5w67742 0.0 1029684
18:00+5w797824 0.0 1027571
21:00+6w7118358 0.0 1026414
3 march, wed
wed300:00+6w7118549 0.0 1026278
03:00+6nnw588847 0.0 1025221
06:00+5n57879 0.0 1025223
09:00+5n67845 0.0 1027377
12:00+5n67750 0.0 1028490
15:00+6nnw56670 0.0 1027606
18:00+6nw57700 0.0 1028328
21:00+5nw56740 0.0 1029169